Weather in Negombo

Sri Lanka     7°12′37″N   79°50′31″E
temp.,
°C
wind,
m/s
gust,
m/s
humid.,
%
clouds,
%
prec.,
mm/h
press.,
hPa
HPBL,
m
7 march, sun
sun723:30+27se2279100 0.6 1013246
02:30+27ene2281100 0.0 1010246
05:30+26nne338398 0.0 1010302
08:30+26se228245 0.0 1013342
11:30+27wnw448428 0.0 1012428
14:30+27wnw558124 0.0 1008480
17:30+28nw447962 0.6 1009505
20:30+28nw1272100 0.1 1011399
8 march, mon
mon823:30+28se448091 0.1 1012277
02:30+26ene338534 0.0 1009221
05:30+26e338417 0.0 1010224
08:30+26e228153 0.0 1013220
11:30+27nw448257 0.0 1012318
14:30+28wnw56772 0.5 1009382
17:30+29nnw677440 11.4 1009427
20:30+28sse6676100 4.6 1012416
9 march, tue
tue923:30+27se457885 4.6 1012314
02:30+26ne448287 0.0 1009292
05:30+26ne338193 0.0 1010332
08:30+25e3285100 0.0 1013294
11:30+26nw128199 0.0 1013180
14:30+27w347399 0.0 1009152
17:30+29nnw5675100 0.0 1009505
20:30+29nnw457893 1.4 1012507
10 march, wed
wed1023:30+28sse347797 1.4 1012378
02:30+26e4483100 0.0 1010265
05:30+26ene228289 0.0 1010204
08:30+26ene228029 0.0 1013259
11:30+27wnw447542 0.0 1012230
14:30+28w567435 0.1 1009314
17:30+29nw787638 4.3 1009353
20:30+29ene4578100 4.8 1011181
11 march, thu
thu1123:30+28se5579100 4.8 1011430
02:30+26e448298 0.0 1009226
05:30+26ene448093 0.0 1010228
08:30+26ene337696 0.0 1013227
11:30+27wnw447453 0.0 1012239
14:30+28w667413 0.3 1009390
17:30+28n157840 9.7 1009256
20:30+26sse6779100 9.9 1012397